• en France
  • Liste des pays
  • À 7 jours
  • Température de l'eau
  • Carte satellitaire
  • Carte météo
  • Widgets météo
  • user-avatar
    Se connecter

    Météo par heure à Maidougouri

    Ce jour, 14 Novembre, Mercredi

    Heure Température Précipitation Vent Pression Humidité
    00:00 +27°C° 0 mm 3 m/s 727 mmHg 19%
    01:00 +27°C° 0 mm 2 m/s 727 mmHg 19%
    02:00 +26°C° 0 mm 2 m/s 726 mmHg 21%
    03:00 +26°C° 0 mm 2 m/s 726 mmHg 23%
    04:00 +25°C° 0 mm 2 m/s 726 mmHg 25%
    05:00 +25°C° 0 mm 2 m/s 726 mmHg 27%
    06:00 +25°C° 0 mm 2 m/s 726 mmHg 28%
    07:00 +25°C° 0 mm 2 m/s 727 mmHg 29%
    08:00 +29°C° 0 mm 3 m/s 727 mmHg 25%
    09:00 +33°C° 0 mm 3 m/s 727 mmHg 20%
    10:00 +36°C° 0 mm 4 m/s 728 mmHg 15%
    11:00 +37°C° 0 mm 4 m/s 727 mmHg 14%
    12:00 +40°C° 0 mm 5 m/s 727 mmHg 12%
    13:00 +41°C° 0 mm 5 m/s 726 mmHg 11%
    14:00 +40°C° 0 mm 5 m/s 726 mmHg 11%
    15:00 +40°C° 0 mm 5 m/s 725 mmHg 12%
    16:00 +40°C° 0 mm 5 m/s 725 mmHg 12%
    17:00 +36°C° 0 mm 5 m/s 725 mmHg 13%
    18:00 +34°C° 0 mm 4 m/s 725 mmHg 14%
    19:00 +32°C° 0 mm 4 m/s 726 mmHg 15%
    20:00 +30°C° 0 mm 4 m/s 726 mmHg 15%
    21:00 +29°C° 0 mm 4 m/s 727 mmHg 15%
    22:00 +29°C° 0 mm 3 m/s 727 mmHg 15%
    23:00 +28°C° 0 mm 3 m/s 727 mmHg 17%

    Demain, 15 Novembre, Jeudi

    Heure Température Précipitation Vent Pression Humidité
    00:00 +27°C° 0 mm 3 m/s 727 mmHg 18%
    01:00 +27°C° 0 mm 3 m/s 727 mmHg 20%
    02:00 +26°C° 0 mm 3 m/s 727 mmHg 22%
    03:00 +25°C° 0 mm 3 m/s 726 mmHg 24%
    04:00 +25°C° 0 mm 2 m/s 726 mmHg 26%
    05:00 +25°C° 0 mm 2 m/s 727 mmHg 27%
    06:00 +25°C° 0 mm 2 m/s 727 mmHg 28%
    07:00 +25°C° 0 mm 2 m/s 727 mmHg 28%
    08:00 +28°C° 0 mm 3 m/s 728 mmHg 24%
    09:00 +32°C° 0 mm 4 m/s 728 mmHg 19%
    10:00 +34°C° 0 mm 5 m/s 729 mmHg 15%
    11:00 +36°C° 0 mm 4 m/s 728 mmHg 13%
    12:00 +37°C° 0 mm 4 m/s 727 mmHg 12%
    13:00 +38°C° 0 mm 4 m/s 727 mmHg 11%
    14:00 +38°C° 0 mm 4 m/s 726 mmHg 11%
    15:00 +38°C° 0 mm 4 m/s 726 mmHg 11%
    16:00 +38°C° 0 mm 4 m/s 725 mmHg 11%
    17:00 +36°C° 0 mm 4 m/s 725 mmHg 13%
    18:00 +33°C° 0 mm 3 m/s 726 mmHg 15%
    19:00 +30°C° 0 mm 3 m/s 726 mmHg 16%
    20:00 +29°C° 0 mm 3 m/s 726 mmHg 17%
    21:00 +28°C° 0 mm 3 m/s 727 mmHg 17%
    22:00 +27°C° 0 mm 3 m/s 728 mmHg 18%
    23:00 +27°C° 0 mm 2 m/s 727 mmHg 18%

    Après-demain, 16 Novembre, Vendredi

    Heure Température Précipitation Vent Pression Humidité
    00:00 +26°C° 0 mm 2 m/s 727 mmHg 18%
    01:00 +26°C° 0 mm 2 m/s 727 mmHg 19%
    02:00 +25°C° 0 mm 2 m/s 727 mmHg 21%
    03:00 +24°C° 0 mm 2 m/s 727 mmHg 24%
    04:00 +24°C° 0 mm 2 m/s 727 mmHg 27%
    05:00 +24°C° 0 mm 2 m/s 727 mmHg 30%
    06:00 +24°C° 0 mm 2 m/s 728 mmHg 33%
    07:00 +24°C° 0 mm 2 m/s 728 mmHg 36%
    08:00 +27°C° 0 mm 2 m/s 729 mmHg 31%
    09:00 +30°C° 0 mm 3 m/s 729 mmHg 26%
    10:00 +33°C° 0 mm 3 m/s 730 mmHg 21%
    11:00 +35°C° 0 mm 3 m/s 729 mmHg 19%
    12:00 +36°C° 0 mm 3 m/s 728 mmHg 16%
    13:00 +38°C° 0 mm 3 m/s 728 mmHg 14%
    14:00 +38°C° 0 mm 3 m/s 727 mmHg 14%
    15:00 +38°C° 0 mm 3 m/s 727 mmHg 14%
    16:00 +38°C° 0 mm 3 m/s 726 mmHg 14%
    17:00 +35°C° 0 mm 3 m/s 726 mmHg 16%
    18:00 +33°C° 0 mm 4 m/s 727 mmHg 18%
    19:00 +30°C° 0 mm 4 m/s 727 mmHg 21%
    20:00 +29°C° 0 mm 4 m/s 727 mmHg 21%
    21:00 +28°C° 0 mm 3 m/s 728 mmHg 22%
    22:00 +27°C° 0 mm 3 m/s 728 mmHg 22%
    23:00 +26°C° 0 mm 2 m/s 728 mmHg 23%

    17 Novembre, Samedi

    Heure Température Précipitation Vent Pression Humidité
    00:00 +26°C° 0 mm 2 m/s 728 mmHg 24%
    01:00 +25°C° 0 mm 2 m/s 727 mmHg 25%
    02:00 +24°C° 0 mm 2 m/s 727 mmHg 27%
    03:00 +24°C° 0 mm 2 m/s 727 mmHg 29%
    04:00 +23°C° 0 mm 2 m/s 727 mmHg 32%
    05:00 +24°C° 0 mm 2 m/s 728 mmHg 33%
    06:00 +24°C° 0 mm 2 m/s 728 mmHg 35%
    07:00 +24°C° 0 mm 2 m/s 729 mmHg 37%
    08:00 +27°C° 0 mm 2 m/s 729 mmHg 32%
    09:00 +30°C° 0 mm 3 m/s 730 mmHg 27%
    10:00 +33°C° 0 mm 4 m/s 730 mmHg 21%
    11:00 +35°C° 0 mm 3 m/s 729 mmHg 19%
    12:00 +36°C° 0 mm 3 m/s 728 mmHg 16%
    13:00 +38°C° 0 mm 2 m/s 727 mmHg 14%
    14:00 +38°C° 0 mm 2 m/s 727 mmHg 14%
    15:00 +38°C° 0 mm 2 m/s 726 mmHg 13%
    16:00 +38°C° 0 mm 2 m/s 726 mmHg 13%
    17:00 +36°C° 0 mm 2 m/s 726 mmHg 15%
    18:00 +34°C° 0 mm 3 m/s 727 mmHg 17%
    19:00 +32°C° 0 mm 4 m/s 727 mmHg 20%
    20:00 +30°C° 0 mm 3 m/s 727 mmHg 20%
    21:00 +29°C° 0 mm 3 m/s 728 mmHg 21%
    22:00 +28°C° 0 mm 3 m/s 728 mmHg 22%
    23:00 +27°C° 0 mm 2 m/s 728 mmHg 22%

    18 Novembre, Dimanche

    Heure Température Précipitation Vent Pression Humidité
    00:00 +26°C° 0 mm 2 m/s 727 mmHg 23%
    01:00 +25°C° 0 mm 2 m/s 727 mmHg 23%
    02:00 +25°C° 0 mm 1 m/s 727 mmHg 24%
    03:00 +24°C° 0 mm 1 m/s 727 mmHg 25%
    04:00 +24°C° 0 mm 1 m/s 726 mmHg 25%
    05:00 +24°C° 0 mm 1 m/s 727 mmHg 26%
    06:00 +24°C° 0 mm 1 m/s 727 mmHg 27%
    07:00 +25°C° 0 mm 1 m/s 728 mmHg 28%
    08:00 +28°C° 0 mm 2 m/s 729 mmHg 25%
    09:00 +30°C° 0 mm 3 m/s 729 mmHg 21%
    10:00 +34°C° 0 mm 4 m/s 729 mmHg 18%
    11:00 +36°C° 0 mm 3 m/s 729 mmHg 16%
    12:00 +37°C° 0 mm 3 m/s 728 mmHg 15%
    13:00 +38°C° 0 mm 3 m/s 727 mmHg 13%
    14:00 +38°C° 0 mm 3 m/s 727 mmHg 13%
    15:00 +38°C° 0 mm 3 m/s 726 mmHg 13%
    16:00 +38°C° 0 mm 3 m/s 726 mmHg 13%
    17:00 +36°C° 0 mm 3 m/s 726 mmHg 15%
    18:00 +34°C° 0 mm 3 m/s 726 mmHg 16%
    19:00 +32°C° 0 mm 4 m/s 726 mmHg 18%
    20:00 +30°C° 0 mm 3 m/s 727 mmHg 18%
    21:00 +29°C° 0 mm 3 m/s 727 mmHg 18%
    22:00 +28°C° 0 mm 3 m/s 727 mmHg 18%
    23:00 +27°C° 0 mm 3 m/s 727 mmHg 18%

    19 Novembre, Lundi

    Heure Température Précipitation Vent Pression Humidité
    00:00 +27°C° 0 mm 2 m/s 727 mmHg 19%
    01:00 +26°C° 0 mm 2 m/s 727 mmHg 19%
    02:00 +26°C° 0 mm 2 m/s 727 mmHg 19%
    03:00 +25°C° 0 mm 2 m/s 726 mmHg 20%
    04:00 +25°C° 0 mm 2 m/s 726 mmHg 21%
    05:00 +25°C° 0 mm 1 m/s 727 mmHg 22%
    06:00 +25°C° 0 mm 1 m/s 727 mmHg 23%
    07:00 +25°C° 0 mm 1 m/s 728 mmHg 24%
    08:00 +28°C° 0 mm 2 m/s 728 mmHg 21%
    09:00 +31°C° 0 mm 3 m/s 729 mmHg 18%
    10:00 +35°C° 0 mm 3 m/s 729 mmHg 15%
    11:00 +36°C° 0 mm 3 m/s 728 mmHg 14%
    12:00 +38°C° 0 mm 3 m/s 727 mmHg 13%
    13:00 +39°C° 0 mm 3 m/s 727 mmHg 12%
    14:00 +39°C° 0 mm 3 m/s 726 mmHg 12%
    15:00 +39°C° 0 mm 3 m/s 726 mmHg 12%
    16:00 +39°C° 0 mm 2 m/s 725 mmHg 12%
    17:00 +37°C° 0 mm 3 m/s 725 mmHg 14%
    18:00 +35°C° 0 mm 3 m/s 726 mmHg 15%
    19:00 +32°C° 0 mm 4 m/s 726 mmHg 17%
    20:00 +31°C° 0 mm 3 m/s 727 mmHg 17%
    21:00 +30°C° 0 mm 3 m/s 727 mmHg 17%
    22:00 +29°C° 0 mm 3 m/s 727 mmHg 18%
    23:00 +28°C° 0 mm 3 m/s 727 mmHg 18%
    Voir plus